GFSSGP_700_spd_273.txt.gz
Wind_Speed
10 7 5 3 8 15 10 11 6 5 4 3 3 3 2 5 11 2 3 9 9 5 4 6 7 6 6 6 5 4 4 4 4 5 6 7 8 8 9 9 9 9 9 9 9 9 9 9 9
9 5 5 7 21 20 6 5 9 4 3 6 7 7 5 5 2 3 3 8 6 3 4 6 6 5 5 5 5 5 5 5 5 5 6 7 7 8 9 9 10 10 10 11 12 13 14 14 14
8 5 7 15 20 16 11 12 6 8 6 7 3 5 0 2 7 7 6 4 3 3 4 5 5 6 5 5 5 5 6 6 6 7 7 7 7 8 9 9 10 12 13 13 13 13 13 13 14
6 5 9 12 21 10 2 6 5 6 5 6 5 2 5 3 1 6 6 4 4 3 6 7 6 7 7 7 8 8 8 7 6 6 6 6 7 8 10 11 12 13 14 14 15 14 14 14 14
8 7 16 18 18 0 4 2 4 5 4 4 4 4 1 4 5 8 6 5 6 7 7 9 9 10 10 11 10 8 6 5 4 5 6 8 10 11 12 13 14 16 17 17 17 18 18 18 17
9 8 17 19 14 5 2 3 5 4 5 2 6 9 3 3 6 8 9 12 12 7 9 11 12 12 11 9 7 6 4 3 4 6 7 8 9 10 12 14 16 18 19 20 21 21 20 21 21
13 16 15 17 5 12 5 6 6 6 4 4 5 4 2 5 8 11 13 12 13 10 10 12 12 10 8 7 6 4 2 2 4 5 7 8 10 12 13 15 17 18 19 20 22 22 22 23 23
14 13 18 15 16 1 5 6 9 8 5 7 7 5 8 9 11 12 14 13 12 11 9 11 9 9 6 5 4 2 1 4 5 7 9 11 13 15 16 19 20 22 23 25 25 26 27 27 27
14 16 19 15 12 7 4 8 7 10 6 6 8 5 9 8 11 14 15 14 13 13 11 5 7 7 5 3 1 2 4 6 8 10 12 15 18 20 21 21 22 23 26 27 29 30 31 32 32
17 18 17 11 9 13 4 8 9 7 8 7 8 10 8 10 13 17 16 15 14 15 13 11 8 4 2 4 4 5 8 10 12 14 16 19 20 22 24 26 27 27 30 34 31 30 30 31 32
18 22 14 12 13 13 7 7 9 9 10 11 10 14 8 12 17 17 16 15 15 14 16 14 7 6 5 6 8 10 12 14 15 18 20 21 23 25 27 29 30 32 36 33 30 29 29 29 30
23 19 19 13 11 15 14 9 10 12 4 9 13 16 11 15 18 17 16 18 16 16 14 10 8 7 7 9 11 12 15 18 20 22 23 23 25 27 28 30 32 35 33 30 29 30 30 30 29
22 20 17 19 16 13 14 15 10 13 12 11 15 17 17 18 18 17 16 17 17 16 14 10 9 8 9 10 13 16 19 21 22 24 25 25 26 28 31 32 34 33 30 29 29 29 29 28 27
16 21 19 18 19 15 16 16 14 14 18 13 18 17 17 19 19 18 16 16 17 15 12 11 12 12 12 13 15 20 22 23 25 25 26 25 27 29 32 33 33 30 28 28 28 28 27 25 24
18 15 21 17 18 17 16 18 18 15 17 17 20 18 16 18 19 20 17 17 14 12 15 16 17 16 16 16 21 24 25 25 26 26 25 27 28 30 32 33 30 27 27 26 26 24 23 21 19
15 15 21 19 18 18 18 21 21 19 18 20 19 19 18 17 19 20 18 15 19 18 20 21 25 25 19 19 28 26 24 25 25 25 27 27 28 30 31 29 26 25 25 24 23 21 19 17 15
13 20 18 20 20 15 19 20 18 23 21 20 21 20 19 19 21 24 23 24 21 18 17 24 26 22 24 22 30 26 26 25 24 25 26 26 27 29 28 25 24 24 24 22 20 19 18 17 16
13 16 17 12 16 15 21 18 15 15 18 18 22 21 21 22 23 21 26 27 20 17 16 23 25 23 31 28 31 27 25 24 24 24 24 25 27 26 26 24 23 22 21 20 18 16 15 15 14
10 9 11 11 9 8 17 18 21 16 18 20 21 22 22 25 23 23 26 26 26 15 14 15 12 10 16 24 27 26 24 22 22 21 23 25 26 24 22 22 21 20 18 17 16 15 14 14 13
11 14 14 12 10 12 15 17 19 21 17 19 21 23 23 25 25 27 25 28 25 19 11 10 11 12 20 22 25 23 22 21 21 21 23 24 24 22 20 19 18 17 17 16 15 15 16 15 11
13 15 14 15 10 13 15 16 18 19 17 19 22 23 24 26 24 31 25 27 24 20 11 10 12 17 21 22 21 21 20 19 20 21 22 22 21 19 19 18 17 17 16 15 14 14 15 16 14
13 13 13 14 16 19 18 20 21 22 23 22 22 24 25 26 27 36 26 28 25 21 13 18 20 21 22 20 18 19 18 18 19 21 23 21 19 19 18 17 16 16 15 14 13 13 14 15 14
7 5 7 11 16 18 19 15 21 8 18 17 20 22 25 26 29 36 29 30 25 25 19 18 22 23 22 19 18 18 16 16 18 20 21 20 18 18 17 16 15 14 13 13 13 13 13 12 12
9 8 12 13 16 19 23 25 24 19 23 16 16 20 22 23 28 32 24 31 27 31 24 19 21 24 18 17 17 15 14 15 17 19 20 20 19 17 16 16 15 14 13 12 12 12 11 10 10
12 12 17 15 15 14 21 25 22 10 8 12 13 15 27 21 25 26 23 23 27 28 27 26 21 19 14 15 14 13 13 14 15 18 18 18 19 19 16 16 15 14 14 13 13 12 10 10 10
12 12 19 15 11 12 8 8 18 15 17 18 14 17 15 13 23 29 23 18 22 24 26 25 18 15 11 11 11 11 11 12 14 17 18 16 17 17 17 16 15 14 14 14 13 12 11 11 11
12 14 15 18 20 17 19 15 11 15 14 14 16 17 19 22 25 29 24 18 22 21 24 25 17 13 8 7 7 6 10 11 14 16 18 16 17 18 15 16 15 14 13 13 13 11 10 11 12
14 15 11 15 14 16 21 16 16 6 7 7 9 9 19 23 31 26 19 18 19 19 24 24 18 14 10 5 3 5 8 11 14 16 18 18 17 16 16 14 15 14 13 12 11 11 10 12 12
8 15 12 16 18 11 12 12 10 5 11 7 9 17 24 22 24 6 13 17 17 20 25 23 18 18 13 7 4 5 9 12 14 16 18 18 17 15 15 14 14 13 12 11 9 9 10 12 14
15 17 19 17 20 13 21 24 19 11 16 14 14 15 26 34 15 17 16 18 19 21 25 23 20 21 16 11 7 6 8 12 14 17 18 19 17 16 16 14 13 13 11 10 9 9 9 11 12

GFSSGP_700_spd_276.txt.gz
Wind_Speed
14 13 12 10 9 4 18 13 29 4 6 7 7 11 12 12 2 7 9 11 7 1 2 3 5 7 7 6 6 6 6 7 8 8 8 9 9 9 9 9 9 9 9 9 9 9 10 10 10
14 13 11 14 18 25 7 21 9 4 8 10 11 9 3 8 2 11 16 15 2 2 2 5 6 6 7 7 7 7 7 8 8 9 9 9 9 9 10 10 11 11 12 12 12 13 12 12 11
12 11 11 12 21 4 8 9 4 3 8 7 8 9 4 5 11 16 11 2 2 3 6 7 8 7 8 7 7 8 8 10 10 9 8 8 8 9 9 10 11 12 13 15 15 15 15 15 14
10 7 12 16 19 6 6 14 13 4 6 9 2 7 7 5 4 9 8 3 2 7 8 9 9 9 9 9 10 10 10 9 8 8 8 8 8 9 10 11 12 14 15 16 16 17 17 17 17
9 9 15 22 25 4 6 13 14 4 10 10 4 11 11 1 7 7 5 5 2 9 9 9 10 10 11 12 11 9 8 8 7 7 7 8 9 10 11 13 14 15 17 18 19 19 19 19 19
11 11 17 22 11 6 9 5 6 8 7 7 8 11 10 3 8 9 10 15 3 7 9 10 11 12 11 10 8 7 6 6 6 6 7 8 9 11 13 14 15 17 18 19 20 21 22 21 21
14 14 22 22 5 11 12 5 3 5 5 11 6 1 4 7 10 14 17 16 9 10 10 12 13 11 10 9 7 5 4 3 4 6 7 10 12 13 15 17 19 20 21 22 24 25 25 25 25
15 14 20 21 19 2 8 5 8 6 11 8 7 10 3 8 14 17 16 18 9 7 9 10 10 9 8 7 5 3 1 3 6 9 11 14 15 16 16 20 21 23 24 25 26 29 29 27 27
14 18 20 20 17 8 5 9 8 10 4 6 10 8 2 8 14 19 18 15 12 2 4 13 10 9 9 6 3 1 3 6 9 12 15 17 19 21 23 23 24 24 26 28 30 29 27 26 25
18 20 20 19 11 4 5 7 11 9 9 10 12 15 7 10 16 20 18 16 14 10 8 5 8 8 7 5 2 4 6 9 12 15 17 20 20 23 24 27 29 29 30 31 29 27 25 23 23
19 24 19 19 15 14 6 3 11 11 11 15 16 15 11 14 19 18 18 16 18 16 16 17 8 6 4 4 8 10 11 14 13 17 21 23 24 25 26 28 30 29 30 29 27 26 24 25 24
21 22 22 22 15 11 15 7 9 10 15 25 31 15 14 17 20 20 21 21 22 20 23 13 7 4 5 6 10 12 13 16 20 21 24 26 27 27 28 28 29 29 29 26 25 24 24 24 23
19 20 21 20 21 11 14 14 12 11 16 16 32 21 13 19 19 18 17 22 18 25 14 7 8 7 8 9 10 13 16 20 22 24 26 28 28 28 28 27 28 28 26 25 24 24 24 24 25
17 19 21 22 18 19 16 15 12 12 12 8 7 25 15 19 19 19 20 19 20 18 11 10 12 13 12 13 12 13 18 22 24 25 28 28 26 26 27 27 28 27 26 25 24 24 24 23 23
17 19 16 23 19 18 15 17 17 15 16 14 16 14 16 20 18 20 18 20 17 15 14 15 16 17 18 16 19 18 22 24 28 29 27 26 25 25 27 28 26 25 25 24 23 23 21 21 19
14 16 20 18 21 19 17 21 18 18 19 20 25 17 17 16 18 21 19 20 20 20 14 13 16 19 24 27 31 22 24 25 32 31 28 27 25 27 27 27 25 25 24 23 22 20 20 18 16
13 17 20 16 22 19 18 21 19 20 26 23 41 24 18 16 18 24 25 29 25 15 14 17 15 19 24 24 23 21 22 28 33 30 28 26 24 27 27 24 24 23 23 20 19 18 17 17 17
13 19 13 19 18 20 17 20 16 19 27 21 15 15 17 19 21 26 33 30 20 19 19 16 14 15 17 18 26 26 29 30 33 29 27 25 25 25 26 23 23 21 20 19 18 16 16 16 15
14 15 13 9 13 5 12 15 21 17 15 13 14 19 12 18 21 30 36 27 23 25 20 15 12 12 11 11 12 16 22 30 28 25 24 23 25 23 24 22 22 20 18 17 16 16 16 14 14
11 15 15 15 7 5 15 17 16 18 20 21 21 22 29 25 33 40 34 28 27 26 26 16 10 12 13 15 17 21 27 27 27 23 21 23 23 23 21 20 20 20 16 15 14 14 15 16 13
13 15 16 16 14 12 13 19 20 18 20 19 19 23 24 30 34 36 36 33 31 27 26 17 10 12 17 17 19 23 26 26 24 21 19 21 22 21 19 19 18 17 16 15 14 14 14 14 14
13 12 15 16 16 17 14 17 20 18 20 23 20 23 27 29 34 36 39 32 30 25 25 21 14 12 14 19 20 21 23 23 22 21 21 20 22 20 18 17 17 16 16 15 14 14 14 14 12
13 8 7 10 14 19 21 19 22 14 24 29 29 28 28 28 33 37 43 32 27 25 26 27 17 11 17 21 20 21 22 21 21 18 20 20 19 19 18 16 16 16 15 13 14 13 13 12 12
11 9 10 15 17 17 23 23 26 25 19 18 19 19 25 29 30 38 43 33 27 27 29 30 14 5 17 21 19 20 20 18 17 17 19 18 16 16 16 16 15 16 14 13 12 12 12 11 10
10 11 15 15 15 15 14 26 23 17 12 17 19 16 21 30 35 28 38 32 28 27 28 28 26 18 18 18 17 16 15 15 15 16 19 19 19 18 15 16 17 15 15 12 12 12 9 10 10
10 17 15 15 13 9 16 12 7 13 10 13 14 12 16 16 24 42 38 38 27 21 27 28 26 23 19 15 12 9 10 12 13 14 16 18 20 21 18 17 16 14 14 13 14 13 12 11 11
14 18 14 17 23 20 22 12 24 14 8 8 13 14 20 23 22 29 40 35 22 21 20 24 27 24 18 15 9 5 7 9 9 12 15 17 19 20 18 16 15 14 14 14 14 12 11 12 13
14 16 17 14 8 13 19 10 19 11 10 5 9 14 10 13 18 24 32 17 18 18 17 21 26 21 18 16 9 5 4 7 10 12 15 16 18 21 18 17 16 15 14 13 13 13 10 11 12
12 15 16 11 10 7 11 10 15 11 14 2 13 26 24 23 30 32 13 10 24 19 16 19 24 19 21 16 9 5 4 7 11 13 16 17 18 19 18 17 17 16 13 11 10 11 12 12 13
16 13 16 14 9 3 2 29 17 10 6 25 14 14 36 27 28 27 11 13 20 18 18 19 20 18 23 17 11 7 6 7 11 14 16 18 18 18 17 17 16 16 13 10 8 9 10 10 11

GFSSGP_700_spd_279.txt.gz
Wind_Speed
13 13 14 6 5 1 6 10 14 9 7 9 5 9 6 5 3 5 4 9 3 4 2 5 7 7 8 7 7 8 9 9 10 11 12 12 11 11 11 11 11 11 11 11 11 11 10 9 9
13 12 11 3 8 11 6 5 1 4 6 9 6 5 7 7 3 7 7 11 6 6 5 7 9 9 9 8 8 9 10 10 11 12 11 11 11 11 11 12 12 13 14 14 14 14 14 14 12
10 10 11 6 9 19 8 8 8 2 4 7 7 8 12 2 9 5 6 9 5 8 9 9 10 10 9 10 10 11 12 12 11 11 11 11 10 11 12 12 13 14 15 15 15 15 15 15 15
10 8 9 10 12 6 6 5 7 6 5 11 10 7 2 2 2 7 5 8 11 9 10 10 10 10 11 11 12 13 12 11 11 11 10 10 10 10 11 11 12 13 14 15 15 16 16 16 16
10 8 11 14 20 14 6 10 16 14 11 13 10 4 3 6 8 6 6 13 10 10 11 10 11 12 13 14 13 12 11 10 10 9 9 8 8 9 11 12 13 15 16 17 18 19 20 20 19
12 5 14 20 8 8 4 1 22 17 15 11 5 4 8 6 7 7 4 16 13 11 10 11 13 14 14 12 11 11 9 8 8 7 7 8 11 12 13 14 16 18 19 21 22 23 24 25 24
15 9 17 23 27 21 13 5 12 19 15 9 6 5 5 8 9 9 4 13 12 9 10 11 13 12 12 11 10 8 7 6 6 7 8 10 11 13 16 18 19 20 22 24 24 25 27 28 25
9 10 19 18 22 8 4 12 16 6 17 9 5 6 4 7 12 15 2 4 12 9 10 11 12 12 11 10 8 5 4 5 6 7 10 12 14 15 16 19 21 22 24 24 25 26 27 23 22
8 18 25 19 14 3 4 10 12 6 2 11 5 10 2 8 19 23 14 7 11 12 11 10 10 10 10 8 6 3 2 5 8 10 12 15 19 21 23 23 24 25 25 25 26 25 22 22 21
13 20 25 15 19 10 11 10 14 10 15 13 11 2 3 9 18 19 13 3 0 9 12 10 10 7 6 6 4 1 3 5 9 13 16 18 21 23 25 26 26 27 26 26 27 24 23 21 20
12 23 18 21 19 12 2 9 9 10 19 14 4 7 2 11 17 17 18 6 3 2 6 10 10 9 6 9 5 6 5 7 13 15 18 20 24 27 26 27 27 26 26 25 23 22 21 20 19
16 17 20 24 23 19 17 9 10 12 11 22 16 16 4 14 23 18 16 19 15 9 3 2 6 6 6 9 9 9 10 10 13 18 20 22 27 27 28 28 25 25 24 22 21 20 19 20 19
16 15 19 22 24 18 18 16 15 11 11 16 16 11 8 21 23 20 20 24 22 18 11 5 7 6 9 11 12 11 10 11 14 18 22 26 27 29 29 25 25 24 21 20 20 19 20 20 20
19 22 23 22 20 23 19 16 16 11 12 17 12 9 4 20 26 27 28 29 25 19 13 12 10 9 11 14 18 15 14 14 17 20 23 27 28 30 28 25 24 23 21 20 21 21 22 21 21
12 18 18 19 21 25 12 16 13 20 19 20 12 12 7 22 29 32 27 31 24 19 12 12 9 8 12 18 25 20 14 18 22 21 24 27 29 30 27 26 23 21 21 22 22 21 20 20 20
13 13 20 19 19 19 15 21 15 22 22 22 20 19 17 34 36 31 23 23 21 17 13 9 7 7 11 19 24 21 24 24 24 23 25 27 29 31 26 25 22 21 21 21 20 20 19 19 19
10 19 19 17 12 22 25 25 16 20 21 26 25 27 15 27 38 35 31 26 21 15 10 11 10 8 12 16 15 17 14 15 22 25 25 26 29 30 24 22 21 21 20 20 18 17 17 17 18
18 18 18 21 17 22 30 24 17 15 22 24 30 23 15 33 32 42 37 32 20 18 11 14 11 9 10 14 13 13 11 17 20 23 25 25 28 27 22 21 20 20 19 18 16 16 15 15 17
16 18 16 16 13 9 21 22 12 15 23 19 24 19 19 20 23 22 42 30 27 21 15 16 14 12 9 12 13 13 14 16 20 22 22 26 24 23 22 21 19 18 17 16 16 16 16 15 16
10 13 16 18 13 12 10 13 15 14 22 24 27 28 21 22 26 29 34 32 25 23 19 20 17 14 10 14 12 13 14 17 18 19 22 23 22 20 19 19 19 16 16 15 14 15 16 15 13
11 13 16 20 18 21 12 19 21 20 23 21 26 25 28 28 27 20 30 39 25 24 25 23 22 17 12 13 10 14 17 18 18 19 21 20 18 17 18 18 18 18 15 13 12 14 15 14 14
14 14 16 21 15 19 17 16 21 21 18 25 28 30 26 25 26 28 24 29 27 25 24 27 24 19 18 16 12 15 18 18 20 18 18 17 16 16 17 18 17 15 14 14 13 13 14 13 13
14 11 12 11 11 17 21 20 25 26 30 27 27 31 30 27 31 29 24 27 26 21 18 23 27 26 19 18 12 13 16 20 19 17 15 15 16 15 16 15 16 15 14 14 13 13 13 11 11
10 15 9 10 14 16 24 22 30 27 29 24 31 31 27 29 30 28 26 27 21 24 22 24 26 30 19 18 13 13 16 20 18 16 14 14 15 15 15 14 16 15 14 13 13 13 12 11 11
12 6 7 10 7 9 12 19 20 20 15 16 15 18 21 26 34 31 30 30 24 36 29 27 30 29 22 15 15 12 14 15 15 15 14 12 10 12 16 17 15 15 14 14 13 10 11 11 11
8 14 14 3 5 8 13 6 9 23 24 13 14 7 6 7 13 23 24 16 24 19 30 29 30 28 27 21 20 11 11 10 12 14 14 12 12 12 14 14 15 15 15 14 13 11 10 10 11
15 17 15 17 21 11 8 17 10 17 14 12 17 26 25 27 21 9 21 30 9 17 22 27 28 29 33 29 20 11 9 7 9 11 14 14 15 16 17 17 14 14 15 16 14 12 11 10 9
14 13 14 8 2 7 9 10 10 19 19 15 19 26 25 25 26 27 27 17 18 27 27 28 25 29 32 27 16 13 9 5 7 10 12 15 16 17 16 16 15 14 15 15 14 10 10 10 11
13 13 10 4 1 4 3 5 8 14 30 21 25 26 21 22 20 22 26 17 28 30 30 32 25 24 24 20 17 16 11 8 7 8 10 14 17 18 18 18 15 13 14 13 12 11 11 9 8
11 13 8 6 7 4 4 10 19 12 19 20 15 20 19 17 18 17 18 8 4 15 18 21 18 21 19 20 21 19 13 9 7 7 10 13 16 17 18 17 15 13 12 11 11 12 12 9 8

GFSSGP_700_spd_285.txt.gz
Wind_Speed
10 9 10 10 5 3 3 2 6 6 3 6 3 7 4 6 8 4 4 12 9 7 4 7 9 9 9 8 8 8 7 7 7 8 8 7 8 8 8 8 8 8 9 9 9 9 8 8 8
12 9 8 10 5 6 4 4 2 3 2 4 3 2 5 12 8 9 6 11 11 8 6 6 9 10 10 9 7 7 7 8 9 8 8 7 8 8 8 8 8 9 10 11 11 11 11 11 10
12 10 7 6 5 4 9 5 4 5 2 4 6 8 8 9 1 5 10 10 10 8 7 9 9 9 9 8 7 8 8 8 8 7 7 7 7 7 7 7 8 11 13 14 15 15 15 15 15
12 9 7 10 8 7 10 10 4 7 5 8 10 11 14 1 6 5 7 9 7 7 9 10 10 10 9 9 9 10 9 8 7 7 6 6 5 5 7 9 10 13 14 16 17 18 18 18 18
14 10 10 9 7 5 8 9 7 12 12 9 9 10 11 2 7 7 5 7 8 9 9 10 10 10 10 10 11 9 8 7 7 5 4 3 4 6 9 11 14 16 18 19 20 21 21 21 21
16 12 10 12 6 6 9 8 13 12 7 6 4 8 10 6 7 6 7 7 9 9 7 9 10 10 11 11 9 9 8 6 4 2 2 3 6 9 12 15 17 20 22 23 22 23 24 23 23
18 16 14 15 12 6 23 3 8 9 7 4 5 10 12 5 7 6 10 8 8 9 9 9 10 11 11 10 10 8 6 3 1 1 3 6 8 12 15 18 20 21 22 22 23 22 22 22 20
20 18 18 16 7 9 13 6 10 11 7 9 10 13 10 4 8 12 9 8 9 10 9 9 10 11 10 11 9 7 4 3 2 4 6 9 12 15 18 20 20 23 22 21 21 21 20 20 20
21 20 21 15 5 9 8 2 7 19 19 6 9 9 3 6 7 8 5 8 9 10 10 10 10 9 10 10 8 5 5 5 4 6 9 11 13 15 18 19 23 23 20 20 20 19 18 19 20
22 24 19 13 8 4 6 9 17 19 18 16 6 9 2 3 5 8 5 5 8 9 9 10 10 10 9 8 7 6 7 8 8 9 11 13 16 17 19 21 24 22 21 21 20 19 19 20 20
22 24 18 15 9 8 15 16 7 17 13 4 12 3 4 5 6 7 6 6 7 8 10 8 10 10 9 8 7 7 11 12 12 11 10 14 17 19 20 23 24 22 21 20 19 20 21 19 18
19 19 18 16 10 12 13 19 15 18 13 8 5 10 6 5 5 5 5 5 7 6 8 11 11 10 9 9 9 9 13 14 13 7 10 13 18 19 21 24 23 22 21 20 19 20 20 18 18
8 11 16 16 14 12 14 15 12 13 17 9 9 14 10 8 3 7 7 7 8 7 8 9 8 10 12 10 9 9 13 14 17 11 12 17 20 20 21 24 22 20 20 19 18 19 20 20 20
10 12 12 11 11 11 13 15 10 11 21 15 16 15 13 9 5 8 6 8 7 7 7 8 8 10 10 7 8 10 15 17 15 14 20 20 21 21 21 23 21 20 19 18 18 19 21 21 20
9 12 11 9 13 13 12 13 8 8 14 18 16 17 15 10 10 10 3 6 8 5 6 7 10 11 11 10 10 9 14 13 14 13 9 14 19 20 22 22 20 19 18 18 18 19 21 22 19
11 12 12 9 6 11 14 17 13 10 9 11 14 18 19 14 14 12 12 9 8 9 5 5 8 12 13 12 10 11 11 10 8 11 16 17 18 20 21 18 18 17 16 18 19 20 20 19 19
6 11 15 15 17 7 16 16 15 16 12 15 16 19 21 20 20 18 16 13 12 12 11 7 11 12 15 14 11 11 7 7 7 10 13 16 16 18 17 16 15 15 16 18 20 19 18 18 19
9 15 15 15 20 19 19 18 15 20 14 17 19 17 21 23 22 21 16 16 13 15 15 15 18 22 18 18 14 13 11 9 8 10 12 13 16 16 15 15 15 16 17 18 18 16 16 17 18
15 11 12 15 19 17 19 15 4 18 15 18 22 22 22 21 20 21 20 21 17 18 20 17 17 20 24 21 17 15 13 13 11 11 12 14 14 14 14 14 15 16 17 17 16 14 14 15 16
6 6 13 13 15 9 11 21 16 3 6 16 21 25 22 23 23 23 23 22 13 14 13 18 21 24 32 27 22 19 16 15 12 12 13 12 12 14 13 13 14 15 17 17 15 13 12 14 14
8 9 7 8 11 7 3 24 19 11 4 8 14 23 34 32 29 31 29 27 25 17 19 19 24 33 37 22 27 21 16 14 13 12 12 10 11 12 13 13 15 16 17 16 15 13 12 12 14
12 6 8 8 12 7 7 4 27 23 17 12 8 12 17 22 29 44 40 37 35 28 28 18 24 34 37 27 30 23 17 15 13 11 9 11 12 12 12 13 15 16 15 15 14 14 14 12 12
10 6 12 10 8 7 6 9 18 23 24 25 17 13 14 22 38 47 43 40 41 38 32 28 18 11 18 15 28 23 18 14 13 9 8 10 11 11 12 14 15 16 16 15 15 14 14 14 13
12 9 11 14 5 5 10 6 11 15 17 18 20 20 13 18 27 36 42 45 44 36 28 34 29 25 14 10 20 21 16 15 13 7 8 9 11 10 12 14 15 16 16 15 14 14 13 12 13
10 9 5 6 6 3 8 5 7 5 11 16 18 23 19 13 11 15 34 43 40 25 20 16 28 30 21 18 18 18 14 16 10 7 8 9 10 11 13 14 16 16 15 15 14 14 13 12 12
5 10 3 1 0 4 3 5 3 5 10 17 23 24 12 19 15 14 12 8 18 20 24 23 14 20 20 19 20 17 15 16 7 6 7 8 8 10 12 14 16 17 15 14 14 14 13 13 13
4 6 5 1 1 0 1 3 4 5 8 15 14 12 12 12 14 15 14 15 18 18 24 17 13 6 11 15 16 20 19 14 8 5 6 5 7 10 12 14 16 17 15 14 13 14 13 12 14
7 6 3 2 1 1 2 4 2 6 4 9 10 12 14 11 9 15 18 15 13 13 13 15 14 21 20 10 13 14 18 11 13 11 9 6 7 9 12 13 16 17 16 16 14 13 12 11 12
10 3 1 1 2 5 1 3 11 3 4 4 5 10 11 8 9 14 19 19 20 15 12 9 8 3 5 11 14 13 18 16 17 18 13 9 10 10 12 14 16 17 18 17 15 14 12 11 11
8 8 6 1 2 5 2 7 5 2 8 6 8 8 9 7 8 13 22 24 26 23 15 15 16 14 9 9 11 16 17 15 18 22 17 13 12 11 13 14 15 17 17 17 15 14 12 11 11

GFSSGP_700_spd_291.txt.gz
Wind_Speed
10 9 10 8 4 6 8 7 8 5 5 6 8 2 5 7 8 5 5 4 7 7 9 10 10 10 9 7 5 5 4 3 2 3 4 5 6 7 8 8 8 9 10 11 12 12 13 12 13
9 8 9 7 3 7 8 13 9 4 3 5 9 7 10 10 7 4 4 6 7 7 9 9 9 8 7 7 7 6 5 4 4 5 5 6 6 7 7 7 9 10 11 11 12 13 14 14 15
10 6 7 4 3 5 5 13 6 4 3 5 9 11 10 9 5 1 4 6 5 6 8 9 8 8 8 7 7 6 6 7 6 6 6 6 5 5 5 7 9 11 12 14 15 16 15 15 15
12 8 6 3 3 5 8 9 3 8 3 6 10 10 12 7 4 1 4 6 6 5 8 10 10 9 9 7 7 8 8 7 7 7 6 4 3 3 6 9 11 15 17 17 18 18 18 17 16
14 10 7 3 2 4 7 8 5 6 8 8 10 9 12 11 6 2 2 4 6 7 10 10 11 10 10 10 9 9 8 8 7 6 3 1 2 5 8 12 15 17 17 20 20 19 17 16 15
16 14 6 1 5 7 8 6 1 4 6 7 7 9 11 12 6 1 2 4 6 8 8 8 8 8 9 9 10 9 9 7 6 3 1 3 5 8 11 13 17 18 20 22 18 16 15 15 14
16 15 10 3 5 8 9 4 4 2 2 5 8 11 8 12 6 3 4 6 7 7 9 9 9 9 10 11 10 9 8 5 3 3 4 6 8 10 13 15 17 19 23 20 16 15 13 13 13
16 13 12 4 7 11 11 9 6 2 4 6 7 10 8 9 7 5 5 6 8 10 10 11 11 12 11 10 10 8 5 3 3 5 6 8 9 11 13 14 16 21 22 18 15 14 13 13 13
15 14 11 6 7 6 7 3 5 6 10 12 14 13 12 8 5 4 4 5 7 8 10 11 12 12 11 10 9 6 5 5 5 7 8 9 10 11 12 14 17 20 21 17 14 13 13 14 14
15 16 10 6 7 2 1 1 4 3 9 13 8 10 9 9 6 3 3 5 6 9 10 11 12 12 10 10 9 7 6 6 8 10 10 9 7 9 12 15 18 21 20 15 13 12 12 13 14
11 14 13 7 5 5 4 4 5 2 4 8 7 11 9 8 8 6 6 8 10 12 11 10 11 11 10 10 9 7 6 7 10 12 10 9 7 10 14 17 19 22 19 14 12 12 13 14 14
7 7 9 11 9 9 5 5 4 5 4 6 5 9 8 6 8 8 4 5 6 9 10 10 10 9 9 9 8 6 7 9 13 13 13 14 13 15 16 16 18 20 16 13 12 12 14 15 14
4 4 6 6 9 10 7 5 7 4 11 11 7 7 9 10 7 8 10 10 9 8 8 9 9 9 8 7 6 6 7 10 14 15 14 12 16 19 18 17 19 19 14 12 12 13 15 14 13
3 4 4 4 6 7 7 7 5 4 8 8 8 6 6 11 9 10 12 10 9 9 8 9 7 7 7 7 7 7 9 10 14 14 11 11 11 12 15 17 20 16 12 11 12 13 14 14 13
3 4 4 4 4 8 9 10 7 7 8 10 6 6 4 9 14 13 9 12 12 9 10 9 10 6 7 7 7 10 10 11 14 13 10 10 14 14 15 17 15 13 12 11 12 13 13 12 13
3 3 6 5 5 4 6 9 8 12 11 12 8 5 1 5 14 15 13 11 11 12 10 8 7 8 10 9 9 10 12 12 15 13 12 12 14 15 15 15 12 11 11 12 12 13 11 11 12
5 2 6 4 6 4 2 6 10 13 17 15 13 8 5 11 16 19 15 13 12 12 10 7 11 14 14 14 13 12 13 13 15 14 14 16 16 16 16 13 12 11 11 12 13 12 10 10 12
4 6 6 5 4 6 6 5 7 16 20 25 14 12 9 15 13 16 20 18 16 16 15 17 20 21 22 22 18 17 16 14 15 14 12 16 17 16 15 12 12 11 11 12 12 12 11 11 12
6 7 7 2 3 6 10 12 8 5 11 7 7 9 10 14 17 15 17 18 20 19 23 23 24 24 28 28 24 24 21 19 18 14 13 15 16 16 13 12 11 11 11 12 12 12 11 11 12
7 9 7 4 9 8 8 10 12 12 10 10 3 6 11 16 19 18 17 21 22 24 20 21 23 29 33 32 32 30 27 22 20 17 14 14 15 15 13 11 10 10 12 12 12 12 12 12 12
8 7 6 2 1 1 3 11 13 16 17 14 12 9 9 14 17 18 17 22 27 26 27 26 25 25 32 34 22 39 32 36 29 19 16 14 15 14 13 10 10 10 12 11 12 12 11 13 14
6 6 4 2 3 3 2 4 10 11 13 12 13 12 12 10 15 18 22 25 29 29 29 31 29 32 49 35 25 20 28 24 32 16 17 13 15 14 12 10 10 11 12 12 12 12 12 13 14
1 2 2 4 5 3 4 2 4 5 10 12 12 11 16 18 15 10 11 14 14 18 22 23 27 24 28 27 24 14 10 16 21 18 17 15 14 14 13 10 10 11 12 12 13 13 12 12 13
2 2 3 4 4 2 5 1 1 3 9 14 13 9 10 16 20 20 20 17 14 7 4 13 13 18 20 24 19 11 8 13 15 16 18 17 14 15 13 11 10 11 12 13 15 13 12 13 12
2 2 4 1 1 2 2 1 2 4 8 9 10 13 12 14 14 16 15 13 10 5 2 12 19 16 17 22 18 17 14 15 14 16 19 18 15 15 12 11 10 11 13 15 16 15 14 14 14
0 1 2 3 2 2 2 2 1 5 7 8 8 12 14 13 17 21 20 17 13 9 9 13 15 17 21 20 14 17 18 17 18 19 21 19 18 16 12 11 9 11 12 14 16 16 15 14 14
2 1 2 2 2 3 1 3 3 2 8 5 5 8 12 14 13 17 19 18 17 18 12 10 12 14 15 15 12 13 20 21 24 24 26 21 20 16 12 12 10 11 12 14 16 17 18 17 16
1 4 3 3 2 3 2 4 4 2 2 4 2 4 8 8 10 12 15 15 15 17 20 12 7 10 10 12 18 22 24 23 23 26 27 21 21 19 15 13 13 11 12 13 15 18 18 18 17
5 6 6 5 5 5 5 5 7 6 7 7 4 2 4 5 7 9 11 13 14 15 17 19 14 11 12 15 14 14 16 18 19 27 29 24 23 22 18 17 15 13 13 13 13 16 20 19 19
4 4 6 6 6 7 5 10 8 7 9 9 9 9 9 9 9 10 11 14 14 14 17 20 16 14 12 12 13 15 14 15 19 27 25 28 25 24 21 23 21 16 15 15 15 14 19 20 21